Regional Weather Roundup
Issued by NWS

Home | Current Version | Previous Version | Text Only | Print | Product List | Glossary Off
Versions: 1 2 3 4 5 6 7 8 9 10 11 12 13 14 15 16 17 18 19 20 21 22 23 24 25 26 27 28 29 30 31 32 33 34 35 36 37 38 39 40 41 42 43 44 45 46 47 48 49 50

000
ASUS45 KTFX 241504
RWRMT
MONTANA HOURLY WEATHER ROUNDUP
NATIONAL WEATHER SERVICE GREAT FALLS MT
804 AM MST MON NOV 24 2014

NOTE: "FAIR" INDICATES FEW OR NO CLOUDS BELOW 12000 FEET WITH NO
SIGNIFICANT WEATHER AND/OR OBSTRUCTIONS TO VISIBILITY.

* THESE STATIONS ARE NOT UNDER NWS QUALITY CONTROL. THEY DO NOT
   REPORT WEATHER SUCH AS PRECIPITATION OR FOG.

MTZ001>007-043-241600-
WEST OF THE DIVIDE
CITY           SKY/WX    TMP DP  RH WIND       PRES   REMARKS
KALISPELL      CLOUDY    30  28  92 CALM      30.19R
MISSOULA       PTSUNNY   34  25  70 CALM      30.25R
BUTTE          CLOUDY    28  18  66 W13       30.14R WCI  17
MULLAN PASS    FOG       23  19  85 VRB3      30.18R VSB 2
* ESSEX        N/A       32  22  67 SW4G9      N/A
* LINCOLN      N/A       28  23  81 S4G13      N/A
* LOOKOUT PASS N/A       26  25  96 VRB3       N/A
* POLSON       N/A       26  25  96 S1         N/A
* RONAN APT    PTCLDY    34  27  76 N/A        N/A
* SEELEY LAKE  N/A       25  23  92 N/A        N/A
* THOMP F APT  PTCLDY    23  10  57 NW5G25     N/A   WCI  16
* YAAK HILL    N/A       28  26  92 NW2        N/A
$$

MTZ008-052>055-241600-
SOUTHWEST MONTANA
CITY           SKY/WX    TMP DP  RH WIND       PRES   REMARKS
BOZEMAN        CLOUDY    28  18  66 SW6       30.13R WCI  21
DILLON         PTCLDY    25  16  69 S9        30.16R WCI  16
* W YELLOWSTON PTCLDY    16  14  92 N/A        N/A
* ENNIS APT    PTSUNNY   28  12  51 NW7        N/A   WCI  21
* THREE FORKS  PTCLDY    30  16  56 N/A        N/A
* BOULDER HILL N/A       27  11  51 N4G11      N/A
* MONIDA PASS  N/A       21  11  65 NW12G17    N/A   WCI   9
* RAYNOLDS PAS N/A       21 -27  10 N6         N/A   WCI  13
* WHITEHALL    N/A       29  18  63 W4G12      N/A
* WISE RIVER   N/A       26  16  66 W10G17     N/A   WCI  16
$$

MTZ009>010-012-014-046-048-049-054-241600-
EAST SLOPES AND CENTRAL MONTANA
CITY           SKY/WX    TMP DP  RH WIND       PRES   REMARKS
CUT BANK       PTCLDY    30  19  64 W15       30.03R WCI  19
GREAT FALLS    CLOUDY    34  19  54 W13       30.04R WCI  25
HELENA         PTCLDY    34  19  54 W10       30.12R WCI  26
MALMSTROM AFB  PTSUNNY   32  21  64 W13       30.07R WCI  22
* DEARBORN     N/A       27  22  81 SW4        N/A
* EAST GLACIER N/A       29  18  63 NW4G9      N/A
* MONARCH      N/A       29  12  49 W14G24     N/A   WCI  18
* PENDROY      N/A       32  18  56 W18G24     N/A   WCI  21
* ROGERS PASS  N/A       25  21  85 E6G14      N/A   WCI  18
* SAINT MARY   N/A       31  19  61 SE3G19     N/A
* SWEET GRASS  N/A       30  17  58 NW9        N/A   WCI  22
$$

MTZ011-013-016-021-035-040-045-047-050-051-241600-
NORTH CENTRAL MONTANA
CITY           SKY/WX    TMP DP  RH WIND       PRES   REMARKS
HAVRE          PTCLDY    25  19  78 SW7       30.00R WCI  17
LEWISTOWN      CLOUDY    34  19  54 NW14      30.01R WCI  24
* N BAR RANCH  CLOUDY    32  18  56 NW23G31   29.96R WCI  19
* CHESTER      N/A       27  19  72 NW7G13     N/A   WCI  19
* DENTON       N/A       36  17  46 NW14G19    N/A   WCI  27
* GEYSER       N/A       31  20  64 W14        N/A   WCI  21
* JUDITH GAP   N/A       32  22  67 NW24G32    N/A   WCI  19
* LOMA         N/A       30  22  72 S6         N/A   WCI  24
$$

MTZ017>020-022>027-061-062-241600-
NORTHEAST MONTANA
CITY           SKY/WX    TMP DP  RH WIND       PRES   REMARKS
GLASGOW        PTSUNNY   19  16  88 W6        29.94R WCI  11
GLENDIVE       PTSUNNY   14  12  92 CALM      29.91R
JORDAN         PTCLDY    28  23  81 N10       29.91R WCI  19
SIDNEY         CLOUDY    16  10  77 CALM      29.95R
WOLF POINT     CLOUDY    16  10  77 CALM      29.95R
* BEAVER HILL  N/A        9   7  91 N/A        N/A
* CIRCLE       N/A       21  17  84 N/A        N/A
* LINDSAY DVD  N/A       19  16  88 W4         N/A
* NAVAJO       N/A       12   9  88 W3         N/A
* SACO         N/A       19  17  92 W4         N/A
$$

MTZ028>042-056>058-241600-
SOUTHCENTRAL AND SOUTHEAST MONTANA
CITY           SKY/WX    TMP DP  RH WIND       PRES   REMARKS
BAKER          CLOUDY    18  16  92 CALM      29.86R
BILLINGS       PTCLDY    34  19  54 W18       30.00R WCI  23
LIVINGSTON     CLOUDY    34  18  52 W16       30.07R WCI  24
MILES CITY     CLOUDY    32  27  82 NW16      29.88R WCI  21
* LAUREL APT   PTCLDY    34  18  52 W8         N/A   WCI  27
* ALZADA       N/A       31  30  96 W1         N/A
* HYSHAM       N/A       32  22  67 W11G17     N/A   WCI  23
* LAME DEER    N/A       29  27  92 W10G16     N/A   WCI  20
* REED POINT   N/A       35  20  54 W12G17     N/A   WCI  27
* ROSCOE HILL  N/A       30   9  41 W8G21      N/A   WCI  22
$$

REGIONAL REPORTS...DAKOTAS
CITY           SKY/WX    TMP DP  RH WIND       PRES   REMARKS
WILLISTON      CLOUDY    10   7  88 W7        29.94R WCI  -1
DICKINSON      PTCLDY    12   9  88 NW14      29.84R WCI  -4
BEACH          FOG       14  12  92 N6        29.88R VSB 3/4  WCI   5
CROSBY         PTSUNNY    9   9 100 NW3       29.93R
BISMARCK       PTCLDY    12   7  80 NW10      29.88R WCI  -1
GRAND FORKS    CLOUDY     5   0  80 NW24G33   29.75R WCI -17
FARGO          CLOUDY    10   3  73 NW29      29.71R WCI -12
BUFFALO SD     PTSUNNY   23  16  74 NW16      29.76R WCI  10
RAPID CITY     CLOUDY    21  18  88 SE5       29.82R WCI  14
$$

REGIONAL REPORTS...WYOMING/IDAHO/WASHINGTON
CITY           SKY/WX    TMP DP  RH WIND       PRES   REMARKS
SHERIDAN       LGT SNOW  32  28  85 NW29G36   29.95R VSB 1    WCI  18
CODY           PTSUNNY   32  14  47 NW8       29.99R WCI  25
YELLOWSTONE LA PTSUNNY   16  10  77 W9        30.06R WCI   5
SALMON         PTSUNNY   23  23 100 CALM      30.27R
MULLAN PASS    FOG       23  19  85 VRB3      30.18S VSB 2
SAND POINT     PTCLDY    32  32 100 S10       30.29S WCI  24
SPOKANE        PTSUNNY   28  27  96 S7        30.30R WCI  21

$$



USA.gov is the U.S. government's official web portal to all federal, state and local government web resources and services.